Time,TemperatureF,DewpointF,PressureIn,WindDirection,WindDirectionDegrees,WindSpeedMPH,WindSpeedGustMPH,Humidity,HourlyPrecipIn,Conditions,Clouds,dailyrainin,SoftwareType,DateUTC
2013-02-28 00:14:00,33.9,30.0,29.68,South,173,5.0,15.0,85,0.00,,,0.40,weatherlink.com 1.10,2013-02-28 05:14:00,
2013-02-28 00:30:00,33.8,30.0,29.68,South,170,4.0,9.0,85,0.00,,,0.40,weatherlink.com 1.10,2013-02-28 05:30:00,
2013-02-28 00:45:00,33.6,30.0,29.68,South,171,2.0,10.0,86,0.00,,,0.00,weatherlink.com 1.10,2013-02-28 05:45:00,
2013-02-28 01:00:00,33.4,29.0,29.68,South,170,0.0,13.0,84,0.00,,,0.00,weatherlink.com 1.10,2013-02-28 06:00:00,
2013-02-28 01:15:00,33.1,29.0,29.68,SSE,166,0.0,9.0,84,0.00,,,0.00,weatherlink.com 1.10,2013-02-28 06:15:00,
2013-02-28 01:30:00,32.9,28.0,29.68,South,173,0.0,12.0,83,0.00,,,0.00,weatherlink.com 1.10,2013-02-28 06:30:00,
2013-02-28 01:45:00,32.6,28.0,29.67,South,173,0.0,10.0,82,0.00,,,0.00,weatherlink.com 1.10,2013-02-28 06:45:00,
2013-02-28 02:00:00,32.3,27.0,29.66,South,174,2.0,11.0,80,0.00,,,0.00,weatherlink.com 1.10,2013-02-28 07:00:00,
2013-02-28 02:15:00,32.1,27.0,29.66,South,170,1.0,11.0,81,0.00,,,0.00,weatherlink.com 1.10,2013-02-28 07:15:00,
2013-02-28 02:30:00,31.9,26.0,29.65,South,174,0.0,12.0,80,0.00,,,0.00,weatherlink.com 1.10,2013-02-28 07:30:00,
2013-02-28 02:45:00,31.8,26.0,29.65,South,170,3.0,15.0,79,0.00,,,0.00,weatherlink.com 1.10,2013-02-28 07:45:00,
2013-02-28 03:00:00,31.6,25.0,29.65,South,174,3.0,10.0,78,0.00,,,0.00,weatherlink.com 1.10,2013-02-28 08:00:00,
2013-02-28 03:15:00,31.6,25.0,29.65,South,176,4.0,14.0,77,0.00,,,0.00,weatherlink.com 1.10,2013-02-28 08:15:00,
2013-02-28 03:30:00,31.5,25.0,29.65,South,171,2.0,16.0,77,0.00,,,0.00,weatherlink.com 1.10,2013-02-28 08:30:00,
2013-02-28 03:45:00,31.3,25.0,29.65,South,176,1.0,16.0,77,0.00,,,0.00,weatherlink.com 1.10,2013-02-28 08:45:00,
2013-02-28 04:00:00,31.3,25.0,29.65,South,174,0.0,12.0,78,0.00,,,0.00,weatherlink.com 1.10,2013-02-28 09:00:00,
2013-02-28 04:15:00,31.2,24.0,29.64,South,170,2.0,8.0,76,0.00,,,0.00,weatherlink.com 1.10,2013-02-28 09:15:00,
2013-02-28 04:30:00,31.4,25.0,29.64,South,176,5.0,13.0,76,0.00,,,0.00,weatherlink.com 1.10,2013-02-28 09:30:00,
2013-02-28 04:45:00,31.2,24.0,29.64,South,169,2.0,14.0,76,0.00,,,0.00,weatherlink.com 1.10,2013-02-28 09:45:00,
2013-02-28 05:00:00,30.8,25.0,29.64,South,174,3.0,10.0,79,0.00,,,0.00,weatherlink.com 1.10,2013-02-28 10:00:00,
2013-02-28 05:15:00,30.2,24.0,29.65,South,173,5.0,15.0,77,0.00,,,0.00,weatherlink.com 1.10,2013-02-28 10:15:00,
2013-02-28 05:30:00,29.8,23.0,29.65,South,176,1.0,19.0,77,0.00,,,0.00,weatherlink.com 1.10,2013-02-28 10:30:00,
2013-02-28 05:45:00,29.4,23.0,29.65,South,172,0.0,13.0,77,0.00,,,0.00,weatherlink.com 1.10,2013-02-28 10:45:00,
2013-02-28 06:00:00,29.4,22.0,29.66,South,176,1.0,11.0,74,0.00,,,0.00,weatherlink.com 1.10,2013-02-28 11:00:00,
2013-02-28 06:15:00,29.4,22.0,29.66,South,176,4.0,15.0,74,0.00,,,0.00,weatherlink.com 1.10,2013-02-28 11:15:00,
2013-02-28 06:30:00,29.0,22.0,29.66,South,169,4.0,14.0,75,0.00,,,0.00,weatherlink.com 1.10,2013-02-28 11:30:00,
2013-02-28 06:45:00,28.9,22.0,29.66,South,175,4.0,20.0,75,0.00,,,0.00,weatherlink.com 1.10,2013-02-28 11:45:00,
2013-02-28 07:00:00,28.7,22.0,29.66,South,173,2.0,16.0,76,0.00,,,0.00,weatherlink.com 1.10,2013-02-28 12:00:00,
2013-02-28 07:15:00,28.7,21.0,29.66,South,176,7.0,14.0,74,0.00,,,0.00,weatherlink.com 1.10,2013-02-28 12:15:00,
2013-02-28 07:30:00,28.7,22.0,29.66,South,176,3.0,14.0,76,0.00,,,0.00,weatherlink.com 1.10,2013-02-28 12:30:00,
2013-02-28 07:45:00,28.6,22.0,29.66,South,176,4.0,14.0,76,0.00,,,0.00,weatherlink.com 1.10,2013-02-28 12:45:00,
2013-02-28 08:00:00,28.7,22.0,29.66,South,170,3.0,11.0,75,0.00,,,0.00,weatherlink.com 1.10,2013-02-28 13:00:00,
2013-02-28 08:16:00,28.9,22.0,29.67,South,173,2.0,16.0,75,0.00,,,0.00,weatherlink.com 1.10,2013-02-28 13:16:00,
2013-02-28 08:31:00,29.2,22.0,29.68,South,173,3.0,13.0,74,0.00,,,0.00,weatherlink.com 1.10,2013-02-28 13:31:00,
2013-02-28 08:46:00,29.7,22.0,29.69,South,176,1.0,12.0,73,0.00,,,0.00,weatherlink.com 1.10,2013-02-28 13:46:00,
2013-02-28 09:01:00,30.8,23.0,29.69,South,176,6.0,17.0,73,0.00,,,0.00,weatherlink.com 1.10,2013-02-28 14:01:00,
2013-02-28 09:16:00,31.8,23.0,29.68,South,174,2.0,14.0,69,0.00,,,0.00,weatherlink.com 1.10,2013-02-28 14:16:00,
2013-02-28 09:31:00,32.6,23.0,29.69,SSE,158,7.0,18.0,69,0.00,,,0.00,weatherlink.com 1.10,2013-02-28 14:31:00,
2013-02-28 09:46:00,32.9,23.0,29.70,South,169,7.0,16.0,67,0.00,,,0.00,weatherlink.com 1.10,2013-02-28 14:46:00,
2013-02-28 10:01:00,32.6,23.0,29.70,South,178,6.0,16.0,69,0.00,,,0.00,weatherlink.com 1.10,2013-02-28 15:01:00,
2013-02-28 10:16:00,31.9,23.0,29.70,South,174,3.0,17.0,69,0.00,,,0.00,weatherlink.com 1.10,2013-02-28 15:16:00,
2013-02-28 10:31:00,32.0,24.0,29.71,SSE,166,10.0,19.0,71,0.00,,,0.00,weatherlink.com 1.10,2013-02-28 15:31:00,
2013-02-28 10:46:00,33.7,26.0,29.70,South,172,5.0,14.0,72,0.00,,,0.00,weatherlink.com 1.10,2013-02-28 15:46:00,
2013-02-28 11:01:00,34.4,24.0,29.69,South,176,12.0,15.0,67,0.00,,,0.00,weatherlink.com 1.10,2013-02-28 16:01:00,
2013-02-28 11:16:00,33.8,24.0,29.71,SSE,166,2.0,14.0,67,0.00,,,0.00,weatherlink.com 1.10,2013-02-28 16:16:00,
2013-02-28 11:31:00,31.6,24.0,29.72,SSE,167,0.0,15.0,72,0.00,,,0.00,weatherlink.com 1.10,2013-02-28 16:31:00,
2013-02-28 11:46:00,31.2,24.0,29.72,South,174,4.0,6.0,75,0.00,,,0.00,weatherlink.com 1.10,2013-02-28 16:46:00,
2013-02-28 12:01:00,30.6,25.0,29.72,South,169,3.0,8.0,79,0.00,,,0.00,weatherlink.com 1.10,2013-02-28 17:01:00,
2013-02-28 12:16:00,30.4,25.0,29.73,SSE,168,0.0,10.0,79,0.00,,,0.00,weatherlink.com 1.10,2013-02-28 17:16:00,
2013-02-28 12:31:00,30.2,24.0,29.73,South,176,0.0,12.0,79,0.00,,,0.00,weatherlink.com 1.10,2013-02-28 17:31:00,
2013-02-28 12:46:00,30.9,25.0,29.73,South,176,0.0,4.0,79,0.00,,,0.00,weatherlink.com 1.10,2013-02-28 17:46:00,
2013-02-28 13:01:00,30.1,24.0,29.73,South,169,1.0,15.0,78,0.00,,,0.00,weatherlink.com 1.10,2013-02-28 18:01:00,
2013-02-28 13:16:00,29.6,24.0,29.73,South,169,2.0,9.0,80,0.00,,,0.00,weatherlink.com 1.10,2013-02-28 18:16:00,
2013-02-28 13:31:00,29.6,24.0,29.72,South,173,2.0,12.0,80,0.00,,,0.00,weatherlink.com 1.10,2013-02-28 18:31:00,
2013-02-28 13:46:00,29.5,24.0,29.72,South,169,2.0,13.0,81,0.00,,,0.00,weatherlink.com 1.10,2013-02-28 18:46:00,
2013-02-28 14:01:00,29.8,24.0,29.73,South,176,2.0,16.0,79,0.00,,,0.00,weatherlink.com 1.10,2013-02-28 19:01:00,
2013-02-28 14:16:00,29.6,24.0,29.73,South,170,3.0,8.0,80,0.00,,,0.00,weatherlink.com 1.10,2013-02-28 19:16:00,
2013-02-28 14:31:00,29.8,24.0,29.73,SSE,166,1.0,9.0,79,0.00,,,0.00,weatherlink.com 1.10,2013-02-28 19:31:00,
2013-02-28 14:46:00,29.8,24.0,29.73,South,172,2.0,13.0,78,0.00,,,0.00,weatherlink.com 1.10,2013-02-28 19:46:00,
2013-02-28 15:01:00,30.4,24.0,29.74,South,170,2.0,16.0,76,0.00,,,0.00,weatherlink.com 1.10,2013-02-28 20:01:00,
2013-02-28 15:16:00,30.4,23.0,29.74,South,169,0.0,12.0,75,0.00,,,0.00,weatherlink.com 1.10,2013-02-28 20:16:00,
2013-02-28 15:31:00,30.4,23.0,29.74,South,170,0.0,7.0,75,0.00,,,0.00,weatherlink.com 1.10,2013-02-28 20:31:00,
2013-02-28 15:46:00,30.5,23.0,29.75,South,174,0.0,4.0,75,0.00,,,0.00,weatherlink.com 1.10,2013-02-28 20:46:00,
2013-02-28 16:01:00,30.4,23.0,29.75,South,174,3.0,4.0,75,0.00,,,0.00,weatherlink.com 1.10,2013-02-28 21:01:00,
2013-02-28 16:16:00,30.0,24.0,29.76,SSE,167,0.0,8.0,77,0.00,,,0.00,weatherlink.com 1.10,2013-02-28 21:16:00,
2013-02-28 16:31:00,29.9,24.0,29.76,South,172,0.0,5.0,79,0.00,,,0.00,weatherlink.com 1.10,2013-02-28 21:31:00,
2013-02-28 16:46:00,29.8,23.0,29.76,South,172,0.0,5.0,77,0.00,,,0.00,weatherlink.com 1.10,2013-02-28 21:46:00,
2013-02-28 17:01:00,29.6,23.0,29.76,South,173,4.0,11.0,76,0.00,,,0.00,weatherlink.com 1.10,2013-02-28 22:01:00,
2013-02-28 17:16:00,29.6,23.0,29.77,South,173,2.0,4.0,77,0.00,,,0.00,weatherlink.com 1.10,2013-02-28 22:16:00,
2013-02-28 17:31:00,29.2,23.0,29.78,South,174,0.0,7.0,77,0.00,,,0.00,weatherlink.com 1.10,2013-02-28 22:31:00,
2013-02-28 17:46:00,28.8,23.0,29.78,South,176,0.0,7.0,78,0.00,,,0.00,weatherlink.com 1.10,2013-02-28 22:46:00,
2013-02-28 18:01:00,28.5,22.0,29.79,SSE,166,3.0,11.0,78,0.00,,,0.00,weatherlink.com 1.10,2013-02-28 23:01:00,
2013-02-28 18:16:00,28.3,22.0,29.78,South,174,0.0,10.0,78,0.00,,,0.00,weatherlink.com 1.10,2013-02-28 23:16:00,
2013-02-28 18:31:00,28.1,22.0,29.78,South,174,1.0,9.0,77,0.00,,,0.00,weatherlink.com 1.10,2013-02-28 23:31:00,
2013-02-28 18:46:00,28.1,22.0,29.79,South,178,5.0,9.0,77,0.00,,,0.00,weatherlink.com 1.10,2013-02-28 23:46:00,
2013-02-28 19:02:00,28.0,22.0,29.80,South,169,3.0,8.0,77,0.00,,,0.00,weatherlink.com 1.10,2013-03-01 00:02:00,
2013-02-28 19:16:00,28.0,22.0,29.80,South,175,2.0,9.0,77,0.00,,,0.00,weatherlink.com 1.10,2013-03-01 00:16:00,
2013-02-28 19:31:00,27.9,22.0,29.79,South,170,0.0,9.0,77,0.00,,,0.00,weatherlink.com 1.10,2013-03-01 00:31:00,
2013-02-28 19:47:00,27.9,22.0,29.79,South,174,1.0,11.0,78,0.00,,,0.00,weatherlink.com 1.10,2013-03-01 00:47:00,
2013-02-28 20:02:00,27.7,22.0,29.78,South,169,5.0,11.0,79,0.00,,,0.00,weatherlink.com 1.10,2013-03-01 01:02:00,
2013-02-28 20:17:00,27.6,22.0,29.78,South,173,2.0,12.0,79,0.00,,,0.00,weatherlink.com 1.10,2013-03-01 01:17:00,
2013-02-28 20:32:00,27.4,22.0,29.78,South,173,0.0,8.0,80,0.00,,,0.00,weatherlink.com 1.10,2013-03-01 01:32:00,
2013-02-28 20:47:00,27.4,22.0,29.78,South,174,1.0,10.0,80,0.00,,,0.00,weatherlink.com 1.10,2013-03-01 01:47:00,
2013-02-28 21:02:00,27.2,22.0,29.78,South,176,7.0,7.0,81,0.00,,,0.00,weatherlink.com 1.10,2013-03-01 02:02:00,
2013-02-28 21:17:00,27.1,22.0,29.79,South,173,1.0,8.0,81,0.00,,,0.00,weatherlink.com 1.10,2013-03-01 02:17:00,
2013-02-28 21:32:00,27.1,22.0,29.79,South,173,0.0,6.0,81,0.00,,,0.00,weatherlink.com 1.10,2013-03-01 02:32:00,
2013-02-28 21:47:00,27.1,22.0,29.78,South,174,0.0,7.0,82,0.00,,,0.00,weatherlink.com 1.10,2013-03-01 02:47:00,
2013-02-28 22:02:00,27.1,22.0,29.78,South,174,0.0,4.0,81,0.00,,,0.00,weatherlink.com 1.10,2013-03-01 03:02:00,
2013-02-28 22:17:00,27.0,22.0,29.78,South,176,0.0,8.0,82,0.00,,,0.00,weatherlink.com 1.10,2013-03-01 03:17:00,
2013-02-28 22:32:00,27.0,22.0,29.79,South,170,0.0,7.0,82,0.00,,,0.00,weatherlink.com 1.10,2013-03-01 03:32:00,
2013-02-28 22:47:00,27.0,23.0,29.79,South,172,3.0,12.0,83,0.00,,,0.00,weatherlink.com 1.10,2013-03-01 03:47:00,
2013-02-28 23:02:00,26.9,22.0,29.78,South,173,3.0,8.0,83,0.00,,,0.00,weatherlink.com 1.10,2013-03-01 04:02:00,
2013-02-28 23:17:00,26.9,23.0,29.78,South,174,1.0,5.0,84,0.00,,,0.00,weatherlink.com 1.10,2013-03-01 04:17:00,
2013-02-28 23:32:00,27.0,23.0,29.78,South,174,0.0,6.0,84,0.00,,,0.00,weatherlink.com 1.10,2013-03-01 04:32:00,
2013-02-28 23:47:00,27.0,23.0,29.79,South,170,1.0,7.0,84,0.00,,,0.00,weatherlink.com 1.10,2013-03-01 04:47:00,